{"data":{"norad_id":68107,"epoch":"2026-05-24T20:45:21.885696Z","epoch_age_seconds":97025,"freshness":"FRESH","line1":"1 68107U 26044G   26144.86483664  .00021676  00000+0  67166-3 0  9990","line2":"2 68107  97.2846 105.4440 0001801  94.5189 265.6260 15.33451313 13251","mean_motion":15.33451313,"eccentricity":0.0001801,"inclination_deg":97.2846,"raan_deg":105.444,"arg_perigee_deg":94.5189,"mean_anomaly_deg":265.626,"bstar":0.00067166,"rev_number":1325,"period_min":93.905818058405,"perigee_km":464.29184807954,"apogee_km":466.75693491275,"semimajor_km":6843.6613914961,"source":"CELESTRAK","updated_at":"2026-05-25T13:38:21.841936Z"}}